Time,TemperatureF,DewpointF,PressureIn,WindDirection,WindDirectionDegrees,WindSpeedMPH,WindSpeedGustMPH,Humidity,HourlyPrecipIn,Conditions,Clouds,dailyrainin,SoftwareType,DateUTC
2013-08-23 00:01:00,68.2,66.7,30.08,SSE,155,0.0,0.0,95,0.00,,---,0.00,VWS V14.01,2013-08-23 04:01:00,
2013-08-23 00:06:00,68.1,66.6,30.08,SSE,155,0.0,1.0,95,0.00,,---,0.00,VWS V14.01,2013-08-23 04:06:00,
2013-08-23 00:11:00,68.1,66.6,30.08,West,279,0.0,1.0,95,0.00,,---,0.00,VWS V14.01,2013-08-23 04:11:00,
2013-08-23 00:16:00,68.2,67.0,30.07,West,280,0.0,0.0,96,0.00,,---,0.00,VWS V14.01,2013-08-23 04:16:00,
2013-08-23 00:21:00,68.2,67.0,30.07,West,279,0.0,0.0,96,0.00,,---,0.00,VWS V14.01,2013-08-23 04:21:00,
2013-08-23 00:26:00,68.2,67.0,30.07,West,280,0.0,0.0,96,0.00,,---,0.00,VWS V14.01,2013-08-23 04:26:00,
2013-08-23 00:31:00,68.2,67.0,30.07,West,279,0.0,0.0,96,0.00,,---,0.00,VWS V14.01,2013-08-23 04:31:00,
2013-08-23 00:36:00,68.3,67.1,30.07,West,279,0.0,0.0,96,0.00,,---,0.00,VWS V14.01,2013-08-23 04:36:00,
2013-08-23 00:41:00,68.3,67.1,30.07,West,279,0.0,0.0,96,0.00,,---,0.00,VWS V14.01,2013-08-23 04:41:00,
2013-08-23 00:46:00,68.3,67.1,30.07,West,279,0.0,0.0,96,0.00,,---,0.00,VWS V14.01,2013-08-23 04:46:00,
2013-08-23 00:51:00,68.2,67.0,30.07,West,279,0.0,0.0,96,0.00,,---,0.00,VWS V14.01,2013-08-23 04:51:00,
2013-08-23 00:56:00,68.3,67.1,30.07,West,279,0.0,0.0,96,0.00,,---,0.00,VWS V14.01,2013-08-23 04:56:00,
2013-08-23 01:01:00,68.2,67.0,30.07,West,279,0.0,0.0,96,0.00,,---,0.00,VWS V14.01,2013-08-23 05:01:00,
2013-08-23 01:06:00,68.2,67.0,30.07,West,279,0.0,0.0,96,0.00,,---,0.00,VWS V14.01,2013-08-23 05:06:00,
2013-08-23 01:11:00,68.2,67.0,30.07,West,279,0.0,0.0,96,0.00,,---,0.00,VWS V14.01,2013-08-23 05:11:00,
2013-08-23 01:16:00,68.2,67.0,30.07,West,279,0.0,0.0,96,0.00,,---,0.00,VWS V14.01,2013-08-23 05:16:00,
2013-08-23 01:21:00,68.2,67.0,30.07,West,279,0.0,0.0,96,0.00,,---,0.00,VWS V14.01,2013-08-23 05:21:00,
2013-08-23 01:26:00,68.1,66.9,30.07,West,279,0.0,0.0,96,0.00,,---,0.00,VWS V14.01,2013-08-23 05:26:00,
2013-08-23 01:31:00,68.1,66.9,30.06,West,279,0.0,0.0,96,0.00,,---,0.00,VWS V14.01,2013-08-23 05:31:00,
2013-08-23 01:36:00,68.1,66.9,30.06,West,279,0.0,0.0,96,0.00,,---,0.00,VWS V14.01,2013-08-23 05:36:00,
2013-08-23 01:41:00,68.2,67.0,30.06,West,279,0.0,0.0,96,0.00,,---,0.00,VWS V14.01,2013-08-23 05:41:00,
2013-08-23 01:46:00,68.2,67.0,30.06,West,279,0.0,0.0,96,0.00,,---,0.00,VWS V14.01,2013-08-23 05:46:00,
2013-08-23 01:51:00,68.1,66.9,30.06,West,279,0.0,0.0,96,0.00,,---,0.00,VWS V14.01,2013-08-23 05:51:00,
2013-08-23 01:56:00,68.1,66.9,30.05,West,279,0.0,0.0,96,0.00,,---,0.00,VWS V14.01,2013-08-23 05:56:00,
2013-08-23 02:01:00,68.0,66.8,30.05,West,279,0.0,0.0,96,0.00,,---,0.00,VWS V14.01,2013-08-23 06:01:00,
2013-08-23 02:06:00,68.0,66.8,30.05,West,279,0.0,1.0,96,0.00,,---,0.00,VWS V14.01,2013-08-23 06:06:00,
2013-08-23 02:11:00,67.9,66.7,30.04,West,279,0.0,2.0,96,0.00,,---,0.00,VWS V14.01,2013-08-23 06:11:00,
2013-08-23 02:16:00,68.0,66.8,30.05,West,279,0.0,0.0,96,0.00,,---,0.00,VWS V14.01,2013-08-23 06:16:00,
2013-08-23 02:21:00,67.9,66.7,30.05,West,279,0.0,0.0,96,0.00,,---,0.00,VWS V14.01,2013-08-23 06:21:00,
2013-08-23 02:26:00,67.9,66.7,30.05,West,279,0.0,0.0,96,0.00,,---,0.00,VWS V14.01,2013-08-23 06:26:00,
2013-08-23 02:31:00,68.0,66.8,30.04,SSW,208,0.0,0.0,96,0.00,,---,0.00,VWS V14.01,2013-08-23 06:31:00,
2013-08-23 02:36:00,67.9,66.7,30.04,SSW,208,0.0,0.0,96,0.00,,---,0.00,VWS V14.01,2013-08-23 06:36:00,
2013-08-23 02:41:00,67.8,66.6,30.04,SSW,208,0.0,0.0,96,0.00,,---,0.00,VWS V14.01,2013-08-23 06:41:00,
2013-08-23 02:46:00,67.8,66.6,30.03,SSW,208,0.0,0.0,96,0.00,,---,0.00,VWS V14.01,2013-08-23 06:46:00,
2013-08-23 02:51:00,67.8,66.6,30.03,SSW,208,0.0,0.0,96,0.00,,---,0.00,VWS V14.01,2013-08-23 06:51:00,
2013-08-23 02:56:00,67.8,66.6,30.03,SSW,208,0.0,0.0,96,0.00,,---,0.00,VWS V14.01,2013-08-23 06:56:00,
2013-08-23 03:01:00,67.8,66.6,30.03,SSW,208,0.0,0.0,96,0.00,,---,0.00,VWS V14.01,2013-08-23 07:01:00,
2013-08-23 03:06:00,67.6,66.4,30.03,SSW,208,0.0,0.0,96,0.00,,---,0.00,VWS V14.01,2013-08-23 07:06:00,
2013-08-23 03:11:00,67.6,66.4,30.03,SSW,208,0.0,0.0,96,0.00,,---,0.00,VWS V14.01,2013-08-23 07:11:00,
2013-08-23 03:16:00,67.5,66.3,30.02,SSW,208,0.0,0.0,96,0.00,,---,0.00,VWS V14.01,2013-08-23 07:16:00,
2013-08-23 03:21:00,67.4,66.2,30.02,SSW,208,0.0,0.0,96,0.00,,---,0.00,VWS V14.01,2013-08-23 07:21:00,
2013-08-23 03:26:00,67.5,66.3,30.02,SSW,208,0.0,0.0,96,0.00,,---,0.00,VWS V14.01,2013-08-23 07:26:00,
2013-08-23 03:31:00,67.5,66.3,30.02,SSW,208,0.0,0.0,96,0.00,,---,0.00,VWS V14.01,2013-08-23 07:31:00,
2013-08-23 03:36:00,67.4,66.2,30.02,SSW,208,0.0,0.0,96,0.00,,---,0.00,VWS V14.01,2013-08-23 07:36:00,
2013-08-23 03:41:00,67.4,66.2,30.02,SSW,208,0.0,0.0,96,0.00,,---,0.00,VWS V14.01,2013-08-23 07:41:00,
2013-08-23 03:46:00,67.4,66.5,30.02,SSW,208,0.0,0.0,97,0.00,,---,0.00,VWS V14.01,2013-08-23 07:46:00,
2013-08-23 03:51:00,67.4,66.2,30.02,SSW,208,0.0,0.0,96,0.00,,---,0.00,VWS V14.01,2013-08-23 07:51:00,
2013-08-23 03:56:00,67.2,66.0,30.02,SSW,208,0.0,0.0,96,0.00,,---,0.00,VWS V14.01,2013-08-23 07:56:00,
2013-08-23 04:01:00,67.1,65.9,30.02,WNW,285,0.0,0.0,96,0.00,,---,0.00,VWS V14.01,2013-08-23 08:01:00,
2013-08-23 04:06:00,67.1,66.2,30.02,WNW,285,0.0,0.0,97,0.00,,---,0.00,VWS V14.01,2013-08-23 08:06:00,
2013-08-23 04:11:00,67.1,66.2,30.02,WNW,285,0.0,0.0,97,0.00,,---,0.00,VWS V14.01,2013-08-23 08:11:00,
2013-08-23 04:16:00,67.1,66.2,30.02,WNW,285,0.0,0.0,97,0.00,,---,0.00,VWS V14.01,2013-08-23 08:16:00,
2013-08-23 04:21:00,67.1,66.2,30.02,WNW,285,0.0,0.0,97,0.00,,---,0.00,VWS V14.01,2013-08-23 08:21:00,
2013-08-23 04:26:00,67.0,66.1,30.02,WNW,285,0.0,0.0,97,0.00,,---,0.00,VWS V14.01,2013-08-23 08:26:00,
2013-08-23 04:31:00,67.0,66.1,30.02,WNW,285,0.0,0.0,97,0.00,,---,0.00,VWS V14.01,2013-08-23 08:31:00,
2013-08-23 04:36:00,66.8,65.6,30.02,WNW,285,0.0,0.0,96,0.00,,---,0.00,VWS V14.01,2013-08-23 08:36:00,
2013-08-23 04:41:00,66.7,65.5,30.03,WNW,285,0.0,0.0,96,0.00,,---,0.00,VWS V14.01,2013-08-23 08:41:00,
2013-08-23 04:46:00,66.6,65.4,30.03,WNW,285,0.0,0.0,96,0.00,,---,0.00,VWS V14.01,2013-08-23 08:46:00,
2013-08-23 04:51:00,66.5,65.3,30.03,WNW,285,0.0,0.0,96,0.00,,---,0.00,VWS V14.01,2013-08-23 08:51:00,
2013-08-23 04:56:00,66.4,65.2,30.03,WNW,285,0.0,0.0,96,0.00,,---,0.00,VWS V14.01,2013-08-23 08:56:00,
2013-08-23 05:01:00,66.2,65.0,30.03,WNW,285,0.0,0.0,96,0.00,,---,0.00,VWS V14.01,2013-08-23 09:01:00,
2013-08-23 05:06:00,66.1,64.9,30.04,WNW,285,0.0,0.0,96,0.00,,---,0.00,VWS V14.01,2013-08-23 09:06:00,
2013-08-23 05:11:00,66.0,64.8,30.04,WNW,285,0.0,0.0,96,0.00,,---,0.00,VWS V14.01,2013-08-23 09:11:00,
2013-08-23 05:16:00,65.9,64.7,30.04,WNW,285,0.0,0.0,96,0.00,,---,0.00,VWS V14.01,2013-08-23 09:16:00,
2013-08-23 05:21:00,65.8,64.6,30.04,WNW,285,0.0,0.0,96,0.00,,---,0.00,VWS V14.01,2013-08-23 09:21:00,
2013-08-23 05:26:00,65.8,64.9,30.04,WNW,285,0.0,0.0,97,0.00,,---,0.00,VWS V14.01,2013-08-23 09:26:00,
2013-08-23 05:31:00,65.8,64.9,30.04,WNW,285,0.0,0.0,97,0.00,,---,0.00,VWS V14.01,2013-08-23 09:31:00,
2013-08-23 05:36:00,65.8,64.9,30.04,WNW,285,0.0,0.0,97,0.00,,---,0.00,VWS V14.01,2013-08-23 09:36:00,
2013-08-23 05:41:00,65.9,65.0,30.04,WNW,285,0.0,0.0,97,0.00,,---,0.00,VWS V14.01,2013-08-23 09:41:00,
2013-08-23 05:46:00,65.9,65.0,30.04,WNW,285,0.0,0.0,97,0.00,,---,0.00,VWS V14.01,2013-08-23 09:46:00,
2013-08-23 05:51:00,65.8,64.9,30.03,WNW,285,0.0,0.0,97,0.00,,---,0.00,VWS V14.01,2013-08-23 09:51:00,
2013-08-23 05:56:00,65.9,65.0,30.03,WNW,285,0.0,0.0,97,0.00,,---,0.00,VWS V14.01,2013-08-23 09:56:00,
2013-08-23 06:01:00,65.9,65.0,30.03,WNW,285,0.0,0.0,97,0.00,,---,0.00,VWS V14.01,2013-08-23 10:01:00,
2013-08-23 06:06:00,65.9,65.0,30.03,WNW,285,0.0,0.0,97,0.00,,---,0.00,VWS V14.01,2013-08-23 10:06:00,
2013-08-23 06:11:00,65.9,65.0,30.03,WNW,285,0.0,0.0,97,0.00,,---,0.00,VWS V14.01,2013-08-23 10:11:00,
2013-08-23 06:16:00,66.0,65.1,30.04,WNW,285,0.0,0.0,97,0.00,,---,0.00,VWS V14.01,2013-08-23 10:16:00,
2013-08-23 06:21:00,66.0,65.1,30.04,WNW,285,0.0,0.0,97,0.00,,---,0.00,VWS V14.01,2013-08-23 10:21:00,
2013-08-23 06:26:00,66.0,65.1,30.04,WNW,285,0.0,0.0,97,0.00,,---,0.00,VWS V14.01,2013-08-23 10:26:00,
2013-08-23 06:31:00,65.9,65.0,30.04,WNW,285,0.0,0.0,97,0.00,,---,0.00,VWS V14.01,2013-08-23 10:31:00,
2013-08-23 06:36:00,65.9,65.0,30.04,WNW,285,0.0,0.0,97,0.00,,---,0.00,VWS V14.01,2013-08-23 10:36:00,
2013-08-23 06:41:00,65.9,65.0,30.04,WNW,285,0.0,0.0,97,0.00,,---,0.00,VWS V14.01,2013-08-23 10:41:00,
2013-08-23 06:46:00,66.0,65.1,30.05,WNW,285,0.0,0.0,97,0.00,,---,0.00,VWS V14.01,2013-08-23 10:46:00,
2013-08-23 06:51:00,66.1,65.2,30.05,WNW,285,0.0,0.0,97,0.00,,---,0.00,VWS V14.01,2013-08-23 10:51:00,
2013-08-23 06:56:00,66.2,65.3,30.05,WNW,285,0.0,0.0,97,0.00,,---,0.00,VWS V14.01,2013-08-23 10:56:00,
2013-08-23 07:01:00,66.3,65.4,30.05,WNW,285,0.0,0.0,97,0.00,,---,0.00,VWS V14.01,2013-08-23 11:01:00,
2013-08-23 07:06:00,66.3,65.4,30.06,WNW,285,0.0,0.0,97,0.00,,---,0.00,VWS V14.01,2013-08-23 11:06:00,
2013-08-23 07:11:00,66.4,65.5,30.06,WNW,285,0.0,0.0,97,0.00,,---,0.00,VWS V14.01,2013-08-23 11:11:00,
2013-08-23 07:16:00,66.3,65.4,30.06,WNW,285,0.0,0.0,97,0.00,,---,0.00,VWS V14.01,2013-08-23 11:16:00,
2013-08-23 07:21:00,66.3,65.4,30.06,WNW,285,0.0,0.0,97,0.00,,---,0.00,VWS V14.01,2013-08-23 11:21:00,
2013-08-23 07:26:00,66.3,65.4,30.06,WNW,285,0.0,0.0,97,0.00,,---,0.00,VWS V14.01,2013-08-23 11:26:00,
2013-08-23 07:31:00,66.5,65.6,30.06,WNW,285,0.0,0.0,97,0.00,,---,0.00,VWS V14.01,2013-08-23 11:31:00,
2013-08-23 07:36:00,66.6,65.7,30.06,WNW,285,0.0,0.0,97,0.00,,---,0.00,VWS V14.01,2013-08-23 11:36:00,
2013-08-23 07:41:00,66.7,65.8,30.06,WNW,285,0.0,0.0,97,0.00,,---,0.00,VWS V14.01,2013-08-23 11:41:00,
2013-08-23 07:46:00,66.8,65.9,30.06,WNW,285,0.0,0.0,97,0.00,,---,0.00,VWS V14.01,2013-08-23 11:46:00,
2013-08-23 07:51:00,67.0,66.1,30.06,WNW,285,0.0,0.0,97,0.00,,---,0.00,VWS V14.01,2013-08-23 11:51:00,
2013-08-23 07:56:00,67.2,66.6,30.06,WNW,285,0.0,0.0,98,0.00,,---,0.00,VWS V14.01,2013-08-23 11:56:00,
2013-08-23 08:01:00,67.3,66.7,30.06,WNW,285,0.0,0.0,98,0.00,,---,0.00,VWS V14.01,2013-08-23 12:01:00,
2013-08-23 08:06:00,67.4,66.8,30.06,WNW,285,0.0,0.0,98,0.00,,---,0.00,VWS V14.01,2013-08-23 12:06:00,
2013-08-23 08:11:00,67.6,66.7,30.05,WNW,285,0.0,0.0,97,0.00,,---,0.00,VWS V14.01,2013-08-23 12:11:00,
2013-08-23 08:16:00,67.9,67.3,30.05,WNW,285,0.0,0.0,98,0.00,,---,0.00,VWS V14.01,2013-08-23 12:16:00,
2013-08-23 08:21:00,68.2,67.6,30.05,WNW,285,0.0,0.0,98,0.00,,---,0.00,VWS V14.01,2013-08-23 12:21:00,
2013-08-23 08:26:00,68.5,67.6,30.05,WNW,285,0.0,0.0,97,0.00,,---,0.00,VWS V14.01,2013-08-23 12:26:00,
2013-08-23 08:31:00,68.7,68.1,30.06,WNW,285,0.0,0.0,98,0.00,,---,0.00,VWS V14.01,2013-08-23 12:31:00,
2013-08-23 08:36:00,69.0,68.1,30.06,WNW,285,0.0,0.0,97,0.00,,---,0.00,VWS V14.01,2013-08-23 12:36:00,
2013-08-23 08:41:00,69.3,68.4,30.06,WNW,285,0.0,0.0,97,0.00,,---,0.00,VWS V14.01,2013-08-23 12:41:00,
2013-08-23 08:46:00,69.5,68.6,30.06,WNW,285,0.0,0.0,97,0.00,,---,0.00,VWS V14.01,2013-08-23 12:46:00,
2013-08-23 08:51:00,69.9,69.0,30.05,WNW,285,0.0,0.0,97,0.00,,---,0.00,VWS V14.01,2013-08-23 12:51:00,
2013-08-23 08:56:00,70.2,69.3,30.06,WNW,285,0.0,0.0,97,0.00,,---,0.00,VWS V14.01,2013-08-23 12:56:00,
2013-08-23 09:01:00,70.5,69.6,30.05,WNW,285,0.0,0.0,97,0.00,,---,0.00,VWS V14.01,2013-08-23 13:01:00,
2013-08-23 09:06:00,70.9,69.4,30.05,WNW,285,0.0,0.0,95,0.00,,---,0.00,VWS V14.01,2013-08-23 13:06:00,
2013-08-23 09:11:00,71.2,69.7,30.05,WNW,285,0.0,0.0,95,0.00,,---,0.00,VWS V14.01,2013-08-23 13:11:00,
2013-08-23 09:16:00,71.7,70.2,30.05,WNW,285,0.0,0.0,95,0.00,,---,0.00,VWS V14.01,2013-08-23 13:16:00,
2013-08-23 09:21:00,72.0,69.9,30.05,WSW,248,0.0,0.0,93,0.00,,---,0.00,VWS V14.01,2013-08-23 13:21:00,
2013-08-23 09:26:00,72.5,69.7,30.05,SSE,153,0.0,0.0,91,0.00,,---,0.00,VWS V14.01,2013-08-23 13:26:00,
2013-08-23 09:31:00,73.2,70.7,30.05,SSE,152,0.0,0.0,92,0.00,,---,0.00,VWS V14.01,2013-08-23 13:31:00,
2013-08-23 09:36:00,73.9,70.8,30.05,SSE,152,0.0,1.0,90,0.00,,---,0.00,VWS V14.01,2013-08-23 13:36:00,
2013-08-23 09:41:00,74.6,70.8,30.05,West,265,0.0,2.0,88,0.00,,---,0.00,VWS V14.01,2013-08-23 13:41:00,
2013-08-23 09:46:00,75.1,70.6,30.05,West,265,0.0,0.0,86,0.00,,---,0.00,VWS V14.01,2013-08-23 13:46:00,
2013-08-23 09:51:00,75.7,71.2,30.05,West,265,0.0,0.0,86,0.00,,---,0.00,VWS V14.01,2013-08-23 13:51:00,
2013-08-23 09:56:00,76.6,70.7,30.06,NW,307,0.0,1.0,82,0.00,,---,0.00,VWS V14.01,2013-08-23 13:56:00,
2013-08-23 10:01:00,77.2,71.3,30.06,West,260,0.0,0.0,82,0.00,,---,0.00,VWS V14.01,2013-08-23 14:01:00,
2013-08-23 10:06:00,77.6,71.3,30.06,WSW,250,0.0,3.0,81,0.00,,---,0.00,VWS V14.01,2013-08-23 14:06:00,
2013-08-23 10:11:00,77.9,71.2,30.06,WSW,258,0.0,3.0,80,0.00,,---,0.00,VWS V14.01,2013-08-23 14:11:00,
2013-08-23 10:16:00,78.0,70.6,30.06,WNW,299,0.0,1.0,78,0.00,,---,0.00,VWS V14.01,2013-08-23 14:16:00,
2013-08-23 10:21:00,78.0,70.2,30.06,WNW,285,0.0,2.0,77,0.00,,---,0.00,VWS V14.01,2013-08-23 14:21:00,
2013-08-23 10:25:00,77.9,70.9,30.06,WNW,285,0.0,2.0,79,0.00,,---,0.00,VWS V14.01,2013-08-23 14:25:00,
2013-08-23 10:30:00,78.1,70.3,30.06,WNW,285,0.0,0.0,77,0.00,,---,0.00,VWS V14.01,2013-08-23 14:30:00,
2013-08-23 10:35:00,78.2,70.4,30.06,NNW,329,0.0,4.0,77,0.00,,---,0.00,VWS V14.01,2013-08-23 14:35:00,
2013-08-23 10:40:00,77.8,70.0,30.06,West,262,2.0,4.0,77,0.00,,---,0.00,VWS V14.01,2013-08-23 14:40:00,
2013-08-23 10:45:00,77.4,69.6,30.06,NNW,336,1.0,2.0,77,0.00,,---,0.00,VWS V14.01,2013-08-23 14:45:00,
2013-08-23 10:50:00,76.9,69.9,30.06,NNW,337,0.0,2.0,79,0.00,,---,0.00,VWS V14.01,2013-08-23 14:50:00,
2013-08-23 10:55:00,76.6,70.0,30.07,NNW,337,0.0,2.0,80,0.00,,---,0.00,VWS V14.01,2013-08-23 14:55:00,
2013-08-23 11:00:00,76.5,70.2,30.07,NNW,337,1.0,1.0,81,0.00,,---,0.00,VWS V14.01,2013-08-23 15:00:00,
2013-08-23 11:05:00,76.5,69.9,30.06,NNW,329,2.0,4.0,80,0.00,,---,0.00,VWS V14.01,2013-08-23 15:05:00,
2013-08-23 11:10:00,76.5,69.9,30.06,ENE,65,0.0,4.0,80,0.00,,---,0.00,VWS V14.01,2013-08-23 15:10:00,
2013-08-23 11:15:00,76.4,70.1,30.06,West,279,0.0,1.0,81,0.00,,---,0.00,VWS V14.01,2013-08-23 15:15:00,
2013-08-23 11:20:00,76.5,70.6,30.06,West,279,0.0,1.0,82,0.00,,---,0.00,VWS V14.01,2013-08-23 15:20:00,
2013-08-23 11:25:00,76.8,70.9,30.06,West,279,0.0,1.0,82,0.00,,---,0.00,VWS V14.01,2013-08-23 15:25:00,
2013-08-23 11:30:00,77.0,70.7,30.06,ESE,109,0.0,0.0,81,0.00,,---,0.00,VWS V14.01,2013-08-23 15:30:00,
2013-08-23 11:35:00,77.2,70.9,30.05,ESE,109,0.0,0.0,81,0.00,,---,0.00,VWS V14.01,2013-08-23 15:35:00,
2013-08-23 11:40:00,77.2,69.8,30.05,WNW,290,2.0,3.0,78,0.00,,---,0.00,VWS V14.01,2013-08-23 15:40:00,
2013-08-23 11:45:00,77.4,70.4,30.06,ESE,113,0.0,2.0,79,0.00,,---,0.00,VWS V14.01,2013-08-23 15:45:00,
2013-08-23 11:50:00,77.6,70.2,30.05,West,274,2.0,2.0,78,0.00,,---,0.00,VWS V14.01,2013-08-23 15:50:00,
2013-08-23 11:55:00,77.9,71.2,30.06,South,172,1.0,5.0,80,0.00,,---,0.00,VWS V14.01,2013-08-23 15:55:00,
2013-08-23 12:00:00,78.0,71.3,30.06,South,185,2.0,2.0,80,0.00,,---,0.00,VWS V14.01,2013-08-23 16:00:00,
2013-08-23 12:05:00,77.9,70.9,30.06,SSE,158,1.0,2.0,79,0.00,,---,0.00,VWS V14.01,2013-08-23 16:05:00,
2013-08-23 12:10:00,78.0,72.1,30.06,SSE,154,0.0,2.0,82,0.00,,---,0.00,VWS V14.01,2013-08-23 16:10:00,
2013-08-23 12:15:00,78.1,72.2,30.06,SSE,154,0.0,0.0,82,0.00,,---,0.00,VWS V14.01,2013-08-23 16:15:00,
2013-08-23 12:20:00,78.0,71.3,30.06,SSE,154,0.0,1.0,80,0.00,,---,0.00,VWS V14.01,2013-08-23 16:20:00,
2013-08-23 12:25:00,78.1,71.1,30.06,SSE,154,0.0,1.0,79,0.00,,---,0.00,VWS V14.01,2013-08-23 16:25:00,
2013-08-23 12:30:00,78.2,71.2,30.06,SSE,153,1.0,1.0,79,0.00,,---,0.00,VWS V14.01,2013-08-23 16:30:00,
2013-08-23 12:35:00,78.4,71.0,30.06,SSE,153,0.0,1.0,78,0.00,,---,0.00,VWS V14.01,2013-08-23 16:35:00,
2013-08-23 12:40:00,78.3,71.3,30.06,SSE,153,0.0,1.0,79,0.00,,---,0.00,VWS V14.01,2013-08-23 16:40:00,
2013-08-23 12:45:00,78.3,71.6,30.06,NNW,331,0.0,2.0,80,0.00,,---,0.00,VWS V14.01,2013-08-23 16:45:00,
2013-08-23 12:50:00,78.0,68.7,30.06,NW,313,2.0,9.0,73,0.00,,---,0.00,VWS V14.01,2013-08-23 16:50:00,
2013-08-23 12:55:00,77.6,68.3,30.06,NW,306,1.0,9.0,73,0.00,,---,0.00,VWS V14.01,2013-08-23 16:55:00,
2013-08-23 13:00:00,77.5,68.2,30.05,NW,325,1.0,4.0,73,0.00,,---,0.00,VWS V14.01,2013-08-23 17:00:00,
2013-08-23 13:05:00,77.6,69.1,30.05,NW,325,0.0,4.0,75,0.00,,---,0.00,VWS V14.01,2013-08-23 17:05:00,
2013-08-23 13:10:00,78.0,70.2,30.05,NW,325,0.0,4.0,77,0.00,,---,0.00,VWS V14.01,2013-08-23 17:10:00,
2013-08-23 13:15:00,78.5,70.3,30.04,West,273,0.0,1.0,76,0.00,,---,0.00,VWS V14.01,2013-08-23 17:15:00,
2013-08-23 13:20:00,79.1,70.1,30.04,South,184,1.0,4.0,74,0.00,,---,0.00,VWS V14.01,2013-08-23 17:20:00,
2013-08-23 13:25:00,79.4,70.4,30.04,SSE,165,0.0,4.0,74,0.00,,---,0.00,VWS V14.01,2013-08-23 17:25:00,
2013-08-23 13:30:00,79.5,70.5,30.04,SSW,196,2.0,3.0,74,0.00,,---,0.00,VWS V14.01,2013-08-23 17:30:00,
2013-08-23 13:35:00,79.8,70.0,30.04,SW,222,0.0,3.0,72,0.00,,---,0.00,VWS V14.01,2013-08-23 17:35:00,
2013-08-23 13:40:00,80.0,69.8,30.03,South,176,1.0,4.0,71,0.00,,---,0.00,VWS V14.01,2013-08-23 17:40:00,
2013-08-23 13:45:00,80.2,69.9,30.03,WNW,287,4.0,4.0,71,0.00,,---,0.00,VWS V14.01,2013-08-23 17:45:00,
2013-08-23 13:50:00,80.7,70.4,30.03,SE,124,0.0,4.0,71,0.00,,---,0.00,VWS V14.01,2013-08-23 17:50:00,
2013-08-23 13:55:00,81.3,70.6,30.03,South,181,2.0,4.0,70,0.00,,---,0.00,VWS V14.01,2013-08-23 17:55:00,
2013-08-23 14:00:00,81.5,70.4,30.03,SSW,207,0.0,3.0,69,0.00,,---,0.00,VWS V14.01,2013-08-23 18:00:00,
2013-08-23 14:05:00,82.0,71.3,30.02,NW,311,2.0,5.0,70,0.00,,---,0.00,VWS V14.01,2013-08-23 18:05:00,
2013-08-23 14:10:00,81.9,70.3,30.02,SSW,198,0.0,5.0,68,0.00,,---,0.00,VWS V14.01,2013-08-23 18:10:00,
2013-08-23 14:15:00,82.1,70.1,30.02,South,173,3.0,5.0,67,0.00,,---,0.00,VWS V14.01,2013-08-23 18:15:00,
2013-08-23 14:20:00,82.2,69.7,30.01,SSW,193,5.0,8.0,66,0.00,,---,0.00,VWS V14.01,2013-08-23 18:20:00,
2013-08-23 14:25:00,82.2,70.6,30.01,South,191,1.0,8.0,68,0.00,,---,0.00,VWS V14.01,2013-08-23 18:25:00,
2013-08-23 14:30:00,82.2,69.7,30.01,West,273,0.0,3.0,66,0.00,,---,0.00,VWS V14.01,2013-08-23 18:30:00,
2013-08-23 14:35:00,81.8,68.9,30.01,SSW,196,1.0,5.0,65,0.00,,---,0.00,VWS V14.01,2013-08-23 18:35:00,
2013-08-23 14:40:00,82.0,71.7,30.00,South,177,0.0,5.0,71,0.00,,---,0.00,VWS V14.01,2013-08-23 18:40:00,
2013-08-23 14:45:00,82.5,70.4,30.00,SSE,156,2.0,7.0,67,0.00,,---,0.00,VWS V14.01,2013-08-23 18:45:00,
2013-08-23 14:50:00,83.0,69.6,30.00,South,176,3.0,7.0,64,0.00,,---,0.00,VWS V14.01,2013-08-23 18:50:00,
2013-08-23 14:55:00,82.7,69.3,30.00,SSE,162,0.0,7.0,64,0.00,,---,0.00,VWS V14.01,2013-08-23 18:55:00,
2013-08-23 15:00:00,82.4,69.5,30.01,ESE,110,0.0,1.0,65,0.00,,---,0.00,VWS V14.01,2013-08-23 19:00:00,
2013-08-23 15:05:00,79.6,66.8,30.03,North,356,11.0,14.0,65,0.00,,---,0.00,VWS V14.01,2013-08-23 19:05:00,
2013-08-23 15:10:00,74.3,65.9,30.02,NE,41,10.0,14.0,75,0.00,,---,0.00,VWS V14.01,2013-08-23 19:10:00,
2013-08-23 15:15:00,72.2,65.3,30.03,NNE,20,2.0,8.0,79,0.00,,---,0.00,VWS V14.01,2013-08-23 19:15:00,
2013-08-23 15:20:00,72.2,65.3,30.02,North,353,5.0,9.0,79,0.00,,---,0.00,VWS V14.01,2013-08-23 19:20:00,
2013-08-23 15:25:00,72.1,65.9,30.02,NNW,341,3.0,9.0,81,0.00,,---,0.00,VWS V14.01,2013-08-23 19:25:00,
2013-08-23 15:30:00,71.7,66.6,30.02,North,350,10.0,11.0,84,0.02,,---,0.02,VWS V14.01,2013-08-23 19:30:00,
2013-08-23 15:35:00,69.9,66.5,30.02,North,3,1.0,12.0,89,0.13,,---,0.13,VWS V14.01,2013-08-23 19:35:00,
2013-08-23 15:40:00,69.6,67.2,30.02,North,359,3.0,12.0,92,0.14,,---,0.14,VWS V14.01,2013-08-23 19:40:00,
2013-08-23 15:45:00,69.4,67.0,30.02,North,358,2.0,4.0,92,0.18,,---,0.18,VWS V14.01,2013-08-23 19:45:00,
2013-08-23 15:50:00,69.2,67.1,30.02,North,358,3.0,4.0,93,0.20,,---,0.20,VWS V14.01,2013-08-23 19:50:00,
2013-08-23 15:55:00,69.4,67.6,30.02,North,358,1.0,4.0,94,0.21,,---,0.21,VWS V14.01,2013-08-23 19:55:00,
2013-08-23 16:00:00,69.5,67.7,30.01,North,358,0.0,0.0,94,0.21,,---,0.21,VWS V14.01,2013-08-23 20:00:00,
2013-08-23 16:05:00,69.7,67.9,30.01,North,358,2.0,2.0,94,0.21,,---,0.21,VWS V14.01,2013-08-23 20:05:00,
2013-08-23 16:10:00,69.9,68.1,30.01,North,358,2.0,2.0,94,0.21,,---,0.21,VWS V14.01,2013-08-23 20:10:00,
2013-08-23 16:15:00,70.1,68.0,30.01,North,358,2.0,3.0,93,0.21,,---,0.21,VWS V14.01,2013-08-23 20:15:00,
2013-08-23 16:20:00,70.7,68.6,30.01,North,358,0.0,3.0,93,0.21,,---,0.21,VWS V14.01,2013-08-23 20:20:00,
2013-08-23 16:25:00,71.8,70.0,30.01,North,358,0.0,3.0,94,0.21,,---,0.21,VWS V14.01,2013-08-23 20:25:00,
2013-08-23 16:30:00,72.9,70.8,30.01,North,358,0.0,0.0,93,0.20,,---,0.21,VWS V14.01,2013-08-23 20:30:00,
2013-08-23 16:35:00,74.1,71.6,30.03,North,10,3.0,4.0,92,0.20,,---,0.21,VWS V14.01,2013-08-23 20:35:00,
2013-08-23 16:40:00,74.5,71.4,30.03,North,6,0.0,4.0,90,0.20,,---,0.21,VWS V14.01,2013-08-23 20:40:00,
2013-08-23 16:45:00,74.7,70.9,30.03,North,7,2.0,2.0,88,0.05,,---,0.21,VWS V14.01,2013-08-23 20:45:00,
2013-08-23 16:50:00,74.6,70.1,30.03,North,11,3.0,6.0,86,0.05,,---,0.21,VWS V14.01,2013-08-23 20:50:00,
2013-08-23 16:55:00,74.7,70.6,30.03,North,10,2.0,6.0,87,0.05,,---,0.21,VWS V14.01,2013-08-23 20:55:00,
2013-08-23 17:00:00,74.7,70.9,30.04,NNW,341,1.0,3.0,88,0.00,,---,0.21,VWS V14.01,2013-08-23 21:00:00,
2013-08-23 17:05:00,74.9,70.8,30.04,North,4,3.0,3.0,87,0.00,,---,0.21,VWS V14.01,2013-08-23 21:05:00,
2013-08-23 17:10:00,75.0,69.5,30.04,North,5,3.0,5.0,83,0.00,,---,0.21,VWS V14.01,2013-08-23 21:10:00,
2013-08-23 17:15:00,73.7,68.2,30.04,North,6,3.0,4.0,83,0.00,,---,0.21,VWS V14.01,2013-08-23 21:15:00,
2013-08-23 17:20:00,72.4,67.6,30.04,North,4,3.0,8.0,85,0.00,,---,0.21,VWS V14.01,2013-08-23 21:20:00,
2013-08-23 17:25:00,71.6,67.5,30.04,North,358,3.0,8.0,87,0.00,,---,0.21,VWS V14.01,2013-08-23 21:25:00,
2013-08-23 17:30:00,71.1,67.4,30.04,North,351,2.0,4.0,88,0.00,,---,0.21,VWS V14.01,2013-08-23 21:30:00,
2013-08-23 17:35:00,70.8,67.4,30.05,North,358,7.0,11.0,89,0.00,,---,0.21,VWS V14.01,2013-08-23 21:35:00,
2013-08-23 17:40:00,70.9,67.5,30.05,NNE,12,6.0,11.0,89,0.00,,---,0.21,VWS V14.01,2013-08-23 21:40:00,
2013-08-23 17:45:00,71.5,67.8,30.04,North,11,6.0,7.0,88,0.00,,---,0.21,VWS V14.01,2013-08-23 21:45:00,
2013-08-23 17:50:00,71.8,68.1,30.05,North,8,4.0,7.0,88,0.00,,---,0.21,VWS V14.01,2013-08-23 21:50:00,
2013-08-23 17:55:00,71.7,67.3,30.05,North,8,1.0,7.0,86,0.00,,---,0.21,VWS V14.01,2013-08-23 21:55:00,
2013-08-23 18:00:00,71.9,67.5,30.06,North,6,3.0,3.0,86,0.00,,---,0.21,VWS V14.01,2013-08-23 22:00:00,
2013-08-23 18:05:00,72.1,67.3,30.06,NNE,29,2.0,5.0,85,0.00,,---,0.21,VWS V14.01,2013-08-23 22:05:00,
2013-08-23 18:10:00,71.9,66.8,30.06,NNE,23,2.0,5.0,84,0.00,,---,0.21,VWS V14.01,2013-08-23 22:10:00,
2013-08-23 18:15:00,71.8,67.4,30.07,NNE,17,0.0,2.0,86,0.00,,---,0.21,VWS V14.01,2013-08-23 22:15:00,
2013-08-23 18:20:00,71.8,67.4,30.07,NNE,17,0.0,2.0,86,0.00,,---,0.21,VWS V14.01,2013-08-23 22:20:00,
2013-08-23 18:25:00,71.8,68.1,30.07,East,100,0.0,2.0,88,0.00,,---,0.21,VWS V14.01,2013-08-23 22:25:00,
2013-08-23 18:30:00,72.2,68.1,30.08,East,83,0.0,1.0,87,0.00,,---,0.21,VWS V14.01,2013-08-23 22:30:00,
2013-08-23 18:35:00,71.9,67.5,30.08,ENE,74,0.0,3.0,86,0.00,,---,0.21,VWS V14.01,2013-08-23 22:35:00,
2013-08-23 18:40:00,71.3,66.9,30.08,North,8,3.0,4.0,86,0.00,,---,0.21,VWS V14.01,2013-08-23 22:40:00,
2013-08-23 18:45:00,70.6,65.9,30.08,North,1,2.0,2.0,85,0.00,,---,0.21,VWS V14.01,2013-08-23 22:45:00,
2013-08-23 18:50:00,70.2,65.8,30.09,North,1,0.0,3.0,86,0.00,,---,0.21,VWS V14.01,2013-08-23 22:50:00,
2013-08-23 18:55:00,70.1,66.4,30.09,NNE,20,1.0,3.0,88,0.00,,---,0.21,VWS V14.01,2013-08-23 22:55:00,
2013-08-23 19:00:00,70.0,66.3,30.09,NNE,20,1.0,1.0,88,0.00,,---,0.21,VWS V14.01,2013-08-23 23:00:00,
2013-08-23 19:05:00,69.9,66.5,30.10,North,10,2.0,3.0,89,0.00,,---,0.21,VWS V14.01,2013-08-23 23:05:00,
2013-08-23 19:10:00,69.8,66.4,30.10,NNE,12,0.0,3.0,89,0.00,,---,0.21,VWS V14.01,2013-08-23 23:10:00,
2013-08-23 19:15:00,69.6,66.5,30.10,NNE,12,0.0,0.0,90,0.00,,---,0.21,VWS V14.01,2013-08-23 23:15:00,
2013-08-23 19:20:00,69.5,66.4,30.10,NNE,12,0.0,0.0,90,0.00,,---,0.21,VWS V14.01,2013-08-23 23:20:00,
2013-08-23 19:25:00,69.4,65.7,30.10,NNE,19,0.0,3.0,88,0.00,,---,0.21,VWS V14.01,2013-08-23 23:25:00,
2013-08-23 19:30:00,69.3,65.9,30.11,NNE,19,0.0,0.0,89,0.00,,---,0.21,VWS V14.01,2013-08-23 23:30:00,
2013-08-23 19:35:00,69.1,65.7,30.11,NNE,19,0.0,0.0,89,0.00,,---,0.21,VWS V14.01,2013-08-23 23:35:00,
2013-08-23 19:40:00,69.0,65.9,30.11,NNE,19,0.0,0.0,90,0.00,,---,0.21,VWS V14.01,2013-08-23 23:40:00,
2013-08-23 19:45:00,68.8,65.8,30.12,East,90,0.0,0.0,90,0.00,,---,0.21,VWS V14.01,2013-08-23 23:45:00,
2013-08-23 19:50:00,68.6,65.6,30.12,ESE,121,0.0,0.0,90,0.00,,---,0.21,VWS V14.01,2013-08-23 23:50:00,
2013-08-23 19:55:00,68.5,65.8,30.12,SE,144,0.0,0.0,91,0.00,,---,0.21,VWS V14.01,2013-08-23 23:55:00,
2013-08-23 20:00:00,68.2,65.5,30.13,SE,144,0.0,0.0,91,0.00,,---,0.21,VWS V14.01,2013-08-24 00:00:00,
2013-08-23 20:05:00,68.0,65.0,30.13,SE,144,0.0,0.0,90,0.00,,---,0.21,VWS V14.01,2013-08-24 00:05:00,
2013-08-23 20:10:00,67.8,65.1,30.13,SE,144,0.0,0.0,91,0.00,,---,0.21,VWS V14.01,2013-08-24 00:10:00,
2013-08-23 20:15:00,67.7,65.0,30.13,SE,144,0.0,0.0,91,0.00,,---,0.21,VWS V14.01,2013-08-24 00:15:00,
2013-08-23 20:20:00,67.6,64.9,30.14,SE,144,0.0,0.0,91,0.00,,---,0.21,VWS V14.01,2013-08-24 00:20:00,
2013-08-23 20:25:00,67.4,64.7,30.14,SE,144,0.0,0.0,91,0.00,,---,0.21,VWS V14.01,2013-08-24 00:25:00,
2013-08-23 20:30:00,67.3,64.9,30.14,SE,144,0.0,0.0,92,0.00,,---,0.21,VWS V14.01,2013-08-24 00:30:00,
2013-08-23 20:35:00,67.1,64.7,30.14,ESE,106,0.0,0.0,92,0.00,,---,0.21,VWS V14.01,2013-08-24 00:35:00,
2013-08-23 20:40:00,67.0,64.3,30.15,ESE,106,0.0,0.0,91,0.00,,---,0.21,VWS V14.01,2013-08-24 00:40:00,
2013-08-23 20:45:00,66.9,64.2,30.15,ESE,106,0.0,0.0,91,0.00,,---,0.21,VWS V14.01,2013-08-24 00:45:00,
2013-08-23 20:50:00,66.8,64.4,30.15,NE,36,0.0,0.0,92,0.00,,---,0.21,VWS V14.01,2013-08-24 00:50:00,
2013-08-23 20:55:00,66.8,64.4,30.15,NE,36,0.0,0.0,92,0.00,,---,0.21,VWS V14.01,2013-08-24 00:55:00,
2013-08-23 21:00:00,66.7,64.3,30.15,NE,36,0.0,0.0,92,0.00,,---,0.21,VWS V14.01,2013-08-24 01:00:00,
2013-08-23 21:05:00,66.6,64.2,30.15,NE,36,0.0,0.0,92,0.00,,---,0.21,VWS V14.01,2013-08-24 01:05:00,
2013-08-23 21:10:00,66.5,64.1,30.16,NE,36,0.0,0.0,92,0.00,,---,0.21,VWS V14.01,2013-08-24 01:10:00,
2013-08-23 21:15:00,66.4,64.0,30.16,NE,36,0.0,0.0,92,0.00,,---,0.21,VWS V14.01,2013-08-24 01:15:00,
2013-08-23 21:20:00,66.3,64.2,30.16,NE,36,0.0,0.0,93,0.00,,---,0.21,VWS V14.01,2013-08-24 01:20:00,
2013-08-23 21:25:00,66.1,64.0,30.17,NE,36,0.0,0.0,93,0.00,,---,0.21,VWS V14.01,2013-08-24 01:25:00,
2013-08-23 21:30:00,66.0,63.9,30.17,NE,36,0.0,0.0,93,0.00,,---,0.21,VWS V14.01,2013-08-24 01:30:00,
2013-08-23 21:35:00,65.9,63.8,30.17,NE,36,0.0,0.0,93,0.00,,---,0.21,VWS V14.01,2013-08-24 01:35:00,
2013-08-23 21:40:00,65.7,63.6,30.18,NE,36,0.0,0.0,93,0.00,,---,0.21,VWS V14.01,2013-08-24 01:40:00,
2013-08-23 21:45:00,65.6,63.8,30.17,NE,36,0.0,0.0,94,0.00,,---,0.21,VWS V14.01,2013-08-24 01:45:00,
2013-08-23 21:50:00,65.4,63.6,30.18,NE,36,0.0,0.0,94,0.00,,---,0.21,VWS V14.01,2013-08-24 01:50:00,
2013-08-23 21:55:00,65.3,63.5,30.18,NE,36,0.0,0.0,94,0.00,,---,0.21,VWS V14.01,2013-08-24 01:55:00,
2013-08-23 22:00:00,65.2,63.4,30.18,NE,36,0.0,0.0,94,0.00,,---,0.21,VWS V14.01,2013-08-24 02:00:00,
2013-08-23 22:05:00,65.0,63.2,30.18,NE,36,0.0,0.0,94,0.00,,---,0.21,VWS V14.01,2013-08-24 02:05:00,
2013-08-23 22:10:00,64.8,63.0,30.18,NE,36,0.0,0.0,94,0.00,,---,0.21,VWS V14.01,2013-08-24 02:10:00,
2013-08-23 22:15:00,64.6,62.8,30.18,NE,36,0.0,0.0,94,0.00,,---,0.21,VWS V14.01,2013-08-24 02:15:00,
2013-08-23 22:20:00,64.4,62.6,30.18,NE,36,0.0,0.0,94,0.00,,---,0.21,VWS V14.01,2013-08-24 02:20:00,
2013-08-23 22:25:00,64.2,62.4,30.18,NE,36,0.0,0.0,94,0.00,,---,0.21,VWS V14.01,2013-08-24 02:25:00,
2013-08-23 22:30:00,64.1,62.6,30.18,NE,36,0.0,0.0,95,0.00,,---,0.21,VWS V14.01,2013-08-24 02:30:00,
2013-08-23 22:35:00,63.9,62.4,30.18,NE,36,0.0,0.0,95,0.00,,---,0.21,VWS V14.01,2013-08-24 02:35:00,
2013-08-23 22:40:00,63.8,62.3,30.18,NE,36,0.0,0.0,95,0.00,,---,0.21,VWS V14.01,2013-08-24 02:40:00,
2013-08-23 22:45:00,63.6,62.2,30.18,NE,36,0.0,0.0,95,0.00,,---,0.21,VWS V14.01,2013-08-24 02:45:00,
2013-08-23 22:50:00,63.5,62.0,30.18,NE,36,0.0,0.0,95,0.00,,---,0.21,VWS V14.01,2013-08-24 02:50:00,
2013-08-23 22:55:00,63.3,61.8,30.18,NE,36,0.0,0.0,95,0.00,,---,0.21,VWS V14.01,2013-08-24 02:55:00,
2013-08-23 23:00:00,63.2,61.8,30.18,NE,36,0.0,0.0,95,0.00,,---,0.21,VWS V14.01,2013-08-24 03:00:00,
2013-08-23 23:05:00,63.0,61.5,30.18,NE,36,0.0,0.0,95,0.00,,---,0.21,VWS V14.01,2013-08-24 03:05:00,
2013-08-23 23:10:00,62.8,61.3,30.18,NE,36,0.0,0.0,95,0.00,,---,0.21,VWS V14.01,2013-08-24 03:10:00,
2013-08-23 23:15:00,62.6,61.2,30.18,NE,36,0.0,0.0,95,0.00,,---,0.21,VWS V14.01,2013-08-24 03:15:00,
2013-08-23 23:20:00,62.5,61.3,30.18,NE,36,0.0,0.0,96,0.00,,---,0.21,VWS V14.01,2013-08-24 03:20:00,
2013-08-23 23:25:00,62.4,61.2,30.18,NE,36,0.0,0.0,96,0.00,,---,0.21,VWS V14.01,2013-08-24 03:25:00,
2013-08-23 23:30:00,62.3,61.2,30.19,NE,36,0.0,0.0,96,0.00,,---,0.21,VWS V14.01,2013-08-24 03:30:00,
2013-08-23 23:35:00,62.2,60.8,30.19,NE,36,0.0,0.0,95,0.00,,---,0.21,VWS V14.01,2013-08-24 03:35:00,
2013-08-23 23:40:00,62.0,60.6,30.18,NE,36,0.0,0.0,95,0.00,,---,0.21,VWS V14.01,2013-08-24 03:40:00,
2013-08-23 23:45:00,61.8,60.7,30.19,NE,36,0.0,0.0,96,0.00,,---,0.21,VWS V14.01,2013-08-24 03:45:00,
2013-08-23 23:50:00,61.7,60.5,30.19,NE,36,0.0,0.0,96,0.00,,---,0.21,VWS V14.01,2013-08-24 03:50:00,
2013-08-23 23:55:00,61.5,60.1,30.19,NE,36,0.0,0.0,95,0.00,,---,0.21,VWS V14.01,2013-08-24 03:55:00,